CAPE
877 1424 1727 1850 1462 1691 1608 1518 1011 1240 1139 1218 1032 1050 991 1060 1045 927 732 483 694 521 527 726 997 1402 1505 1524 1638 1550 1584 1270 1176 887 947 1195 1400 1584 1682 1861 1719 2396 1952
818 1286 1499 1858 1601 1655 1848 1522 1168 1094 734 956 1306 1576 1348 1290 1176 1227 1070 1099 991 850 673 549 539 951 1483 1425 1594 1514 1544 1192 1231 1120 1211 1833 1574 1412 1443 354 46 1902 2079
771 1072 1309 1759 1658 1582 1746 1646 1430 1181 876 729 1098 1046 1345 1325 1244 1252 1334 1398 1118 1233 1185 1068 864 1342 1267 1473 1427 1130 914 970 1319 1251 1350 1227 1608 1564 1218 62 186 1374 2125
835 943 1253 1720 1654 1534 1683 1648 1507 1176 908 1031 1248 1492 1124 1046 986 1261 1173 1312 1365 1223 719 643 748 1200 1043 1159 1109 726 574 744 1116 372 485 657 951 1642 1590 52 1497 2066 2043
723 832 953 1589 1520 1527 1614 1677 1661 1399 1214 1426 1396 1198 1257 1409 1156 1288 1282 1294 1236 1092 1037 900 696 445 918 986 620 265 318 720 717 55 120 427 799 1437 1337 1534 1542 1811 1925
1167 1209 1013 1478 1513 1547 1469 1596 1467 1466 1305 1196 1237 1102 1139 1389 1373 1474 883 1043 1158 1097 1139 1019 943 931 874 780 634 489 361 529 584 697 454 79 1030 1408 1178 1163 1338 1210 1316
1244 1093 1146 1338 1374 1450 1332 1565 1362 1389 1246 1350 1325 1454 1580 1469 1269 1225 1366 1319 1304 1149 1088 1090 957 914 942 1013 1079 923 853 1241 1472 877 181 551 1068 1254 1457 1379 1371 1233 1677
924 708 664 1124 1295 1102 1509 1301 1407 1348 1370 1345 1525 1442 962 1231 1354 1591 1331 1104 940 961 947 959 914 840 943 1120 1210 977 669 617 360 778 166 290 755 1258 1286 1715 1673 1653 1579
324 304 648 864 1142 1056 1177 1228 1184 1443 1248 1442 1338 1203 910 1395 1641 1325 1128 1000 928 814 790 859 988 1076 1172 1211 1261 1096 740 432 32 353 934 727 1124 1363 1464 1215 991 985 1178
258 130 203 667 753 639 884 1150 1256 1247 1359 1568 1467 820 1650 1593 1236 1053 1005 890 915 719 590 672 831 959 986 1080 1106 830 810 807 225 370 44 610 867 751 1324 1325 1569 1343 1177
139 145 333 222 335 419 677 939 1341 1290 1393 1388 1305 948 1298 830 786 358 1130 422 495 533 535 552 602 654 810 756 570 778 962 1195 1095 93 661 202 289 350 861 1031 1252 1226 989
16 49 121 70 125 429 180 391 704 800 810 533 387 384 880 810 692 355 1138 515 132 158 225 362 487 662 1002 641 0 5 588 39 88 676 790 331 164 228 726 992 1133 1224 1364
2 0 129 257 211 125 416 221 713 904 536 409 491 210 453 770 598 900 821 142 80 441 494 677 765 1053 1241 178 0 3 0 29 14 92 855 634 241 137 431 791 1038 1067 1226
0 4 24 211 145 42 509 44 330 415 191 240 374 677 952 549 446 568 1168 626 1306 969 175 319 208 413 980 728 44 94 177 8 0 101 30 633 444 295 268 481 548 852 1096
0 6 0 34 2 297 145 13 152 141 69 121 595 429 1145 492 511 592 391 759 1099 778 372 633 537 501 1064 819 378 505 125 321 53 232 0 21 442 543 786 624 625 952 1497
0 1 2 7 31 58 343 120 294 187 24 4 202 390 698 421 401 731 544 600 857 874 562 565 345 357 762 938 337 360 124 320 167 99 5 0 396 537 683 1070 799 915 1403
0 0 3 0 11 137 154 114 49 187 0 0 11 492 258 492 1083 619 892 768 1194 1065 939 653 1041 1191 1437 832 17 8 80 64 281 123 91 1 439 1325 1006 1238 1203 1286 1411
0 0 0 0 6 98 118 192 129 40 0 0 0 423 291 525 995 1097 944 1003 1075 671 524 749 1154 733 261 295 920 0 7 4 180 316 421 1010 1421 1435 928 1156 1162 1558 1363
0 0 0 0 0 0 209 175 166 2 0 0 0 279 643 896 1265 1690 1668 1556 1138 625 635 1062 1276 1054 823 729 472 132 93 183 223 188 229 284 432 1240 1428 1484 82 572 1014
0 0 0 0 0 0 235 190 3 0 2 170 74 88 830 1083 1302 1943 1594 1217 1389 1189 1221 1343 1046 472 628 215 104 157 272 113 17 60 132 561 868 518 687 1305 0 0 605
0 0 0 0 0 0 73 0 0 0 104 110 93 68 1185 1738 1253 1265 1086 1328 1326 852 110 743 1205 1132 665 151 30 0 15 0 0 7 42 186 486 447 352 142 1352 973 1027
182 17 0 0 39 0 0 0 0 0 196 112 165 248 600 1200 1378 1697 1463 1243 330 79 0 1 507 318 282 109 3 0 0 49 6 0 22 65 148 432 222 56 52 64 104
426 474 9 0 3 0 0 0 0 303 328 173 285 766 625 1054 1441 1799 1735 784 776 275 27 761 818 217 24 43 0 0 0 0 0 49 17 52 44 7 231 50 8 1 0
559 692 880 135 49 47 35 0 0 12 184 103 281 1713 1697 1525 1938 1799 1688 1705 1232 925 991 911 418 184 0 0 0 7 0 0 4 7 3 2 2 1 19 108 15 0 0
628 894 1240 1103 511 296 36 300 0 385 117 496 1009 1051 1829 1936 1670 1654 1973 2201 1939 932 836 708 471 351 218 39 3 2 1 0 2 61 66 20 0 0 0 0 40 0 0
875 642 1293 1704 1074 693 555 18 758 112 590 791 796 780 1089 1507 1344 1503 1674 1661 1281 870 851 550 679 580 556 167 53 49 70 46 47 75 90 15 0 0 0 0 0 20 4
CIN
-39 -31 -6 0 -2 0 -3 -4 -16 -12 -11 -9 -14 -12 -9 -2 -6 -12 -15 -18 -7 -10 -9 -2 -1 0 0 -1 0 -1 -11 -34 -36 -65 -60 -38 -29 -14 -10 -4 -7 -1 -9
-66 -40 -27 0 0 0 0 -2 -13 -12 -23 -11 -5 0 -1 0 -2 -1 -3 -2 -2 0 -1 -6 -7 -3 0 0 0 -5 -6 -34 -33 -36 -34 -4 -12 -7 -3 -147 -35 -3 -2
-64 -49 -20 0 -1 0 0 0 0 -6 -19 -17 -4 -1 0 -1 -2 -1 0 0 0 0 0 0 -1 0 -1 -1 0 -24 -39 -45 -16 -10 -19 -22 -6 -6 -14 -43 -209 -7 0
-64 -45 -16 -1 -1 0 0 0 0 -7 -15 -4 0 0 -4 -5 -2 -1 0 0 0 0 -4 -4 -4 0 -5 -2 -11 -48 -57 -44 -16 -89 -79 -47 -30 -8 -15 -172 -20 -3 0
-66 -51 -35 -1 -2 -1 0 0 0 0 0 0 0 -2 -2 0 -1 0 0 -2 0 0 0 -2 -9 -29 -8 -11 -36 -80 -70 -24 -47 -68 -119 -59 -17 -19 -43 -11 -12 -3 -1
-37 -32 -39 -4 0 0 0 0 0 0 0 0 0 -4 -3 0 0 0 -3 -1 0 0 0 0 -6 -9 -15 -20 -33 -49 -65 -49 -51 -56 -42 -100 -16 -20 -25 -36 -7 -16 -15
-29 -63 -38 -5 0 0 0 0 0 0 0 0 0 0 0 0 0 0 0 0 -1 -1 -1 -1 -7 -13 -16 -12 -15 -32 -42 -33 -13 -3 -120 -47 -34 -21 -14 -17 -13 -14 -3
-25 -50 -52 -1 0 -1 0 0 0 0 0 -1 0 -1 0 0 0 0 0 -2 -15 -20 -21 -15 -16 -25 -24 -19 -16 -30 -50 -52 -68 -47 -77 -86 -71 -27 -23 -1 -3 -1 -2
-63 -90 -24 -1 0 0 0 0 0 0 0 0 -1 0 -1 0 0 0 -1 -9 -20 -34 -40 -39 -35 -35 -33 -34 -35 -47 -51 -71 -115 -207 -12 -57 -52 -39 -39 -32 -30 -27 -15
-41 -101 -72 -4 -2 -6 -1 0 0 0 0 0 0 -2 0 0 -4 -15 -19 -31 -41 -60 -64 -64 -62 -61 -58 -45 -36 -71 -50 -23 -118 -33 -102 -51 -72 -90 -47 -31 -9 -10 -14
-71 -71 -19 -42 -19 -6 -2 0 0 0 0 0 0 -6 -7 -23 -43 -69 -30 -64 -81 -86 -87 -81 -76 -79 -69 -55 -71 -29 -26 -48 -27 -135 -43 -94 -131 -125 -84 -52 -26 -18 -22
-4 -42 -74 -111 -47 -8 -17 -26 -3 -1 -1 -19 -36 -63 -44 -9 -25 -43 -40 -74 -110 -103 -103 -90 -87 -80 -80 -112 0 -14 -88 -163 -628 -55 -80 -145 -134 -158 -97 -72 -43 -22 -7
-3 -1 -52 -40 -20 -37 -18 -55 -9 -8 -7 -21 -33 -59 -39 -6 -13 -12 -48 -81 -107 -78 -56 -39 -52 -56 -34 -95 0 -166 0 -124 -189 -110 -42 -111 -141 -153 -130 -105 -67 -45 -20
0 -2 -2 -55 -21 -85 -17 -100 -8 -10 -17 -28 -35 -24 -7 -9 -13 -5 -8 -11 -14 -19 -15 -15 -18 -11 -8 -74 -171 -83 -64 -195 -1 -53 -54 -75 -110 -145 -163 -138 -133 -88 -42
0 -2 0 -6 -5 -8 -36 -41 -18 -36 -44 -13 -17 -26 -5 -16 -6 -15 -28 -9 -4 -3 -8 -5 -6 -11 -11 -24 -85 -119 -156 -129 -198 -60 0 -76 -138 -116 -121 -139 -143 -106 -46
0 0 -2 -11 -49 -51 -6 -36 -16 -10 -8 -5 -38 -62 -44 -27 -20 -6 -29 -26 -11 -2 -3 -18 -30 -38 -17 -30 -67 -93 -78 -103 -132 -86 -61 0 -138 -149 -132 -108 -126 -118 -77
0 0 -5 0 -54 -56 -35 -44 -31 -21 0 0 -31 -38 -53 -33 -9 -24 -19 -17 -9 -3 -10 -19 -25 -15 -7 -28 -59 -14 -109 -106 -24 -114 -132 -22 -107 -59 -71 -98 -111 -91 -71
0 0 0 0 -57 -80 -86 -48 -38 -48 -1 0 0 -57 -76 -52 -29 -35 -22 -8 -6 -7 -12 -4 -10 -18 -24 -43 -28 0 -12 -60 -95 -26 -14 -26 -29 -58 -46 -90 -96 -69 -88
0 0 0 0 0 0 -72 -57 -62 -6 0 0 0 -25 -41 -41 -25 -19 -5 -9 -10 -13 -13 -7 -13 -22 -28 -47 -17 -61 -86 -43 -74 -46 -12 -16 -16 -14 -7 -12 -32 -14 -57
0 0 0 0 0 0 -65 -63 -14 0 -7 -23 -16 -5 -23 -23 -17 -4 -11 -4 -13 -12 -15 -14 -35 -49 -61 -108 -80 -61 -38 -134 -33 -66 -30 -6 -25 -56 -80 -9 0 0 -33
0 0 0 0 0 0 -146 0 0 0 -64 -52 -16 -13 -20 -5 -12 -16 -20 -7 -14 -67 -92 -20 -17 -19 -45 -130 -134 0 -31 0 0 -32 -58 -13 -23 -43 -82 -130 -8 -78 -60
-103 -89 0 0 -73 0 0 0 0 0 -10 -18 -16 -7 -9 -6 -6 -6 -17 -13 -75 -105 0 -29 -44 -55 -68 -132 -96 0 0 -47 -132 0 -90 -40 -12 -12 -94 -152 -135 -149 -136
-54 -128 -126 0 -53 0 0 0 0 -19 -4 -8 -10 -11 -16 -18 -12 -5 -10 -34 -23 -94 -55 -46 -56 -102 -43 -72 0 0 0 0 0 -117 -143 -65 -35 -10 -46 -152 -176 -54 0
-48 -85 -84 -146 -121 -185 -149 0 0 -49 -39 -11 -6 -31 -27 -12 -3 -21 -13 -14 -11 -25 -39 -43 -88 -112 0 0 0 -173 0 -8 -84 -95 -119 -39 -11 -32 -20 -52 -160 0 0
-39 -24 -20 -94 -131 -123 -146 -76 0 -35 -32 -6 -24 -30 -39 -46 -45 -42 -20 -15 -20 -12 -17 -16 -53 -67 -90 -129 -7 -7 -8 0 -227 -35 -14 -32 0 0 0 0 -43 -2 0
-23 -106 -31 -65 -125 -140 -108 -130 -35 -56 -12 -8 -26 -30 -25 -33 -37 -23 -3 -2 -3 -4 -4 -20 -7 -12 -11 -67 -74 -77 -69 -79 -54 -20 -8 -16 0 0 0 0 0 -7 -17
Wind_Speed
20 19 21 22 23 9 24 26 24 18 20 20 26 23 20 18 16 18 18 20 21 21 20 20 20 20 19 19 21 22 22 22 22 20 20 21 21 21 20 14 19 14 20
20 20 17 17 23 17 21 25 26 21 16 21 25 23 21 20 19 17 17 20 21 21 20 20 20 20 21 20 20 21 23 23 23 23 23 24 25 23 19 16 15 25 25
17 12 17 16 23 23 25 27 26 25 23 21 20 21 20 19 18 18 19 18 21 23 21 21 22 21 20 19 19 20 21 22 23 23 25 25 25 23 21 22 25 25 23
23 7 15 18 24 26 27 27 27 26 23 22 21 21 21 21 22 23 22 23 23 23 21 21 22 21 20 20 20 19 20 21 22 12 21 15 26 26 23 23 24 21 22
21 24 15 18 27 26 24 22 23 25 24 23 21 23 23 23 24 25 25 24 24 22 21 21 22 23 21 21 20 19 19 18 19 6 22 23 26 26 25 24 22 20 20
19 12 15 19 26 26 20 13 15 16 20 20 23 24 24 25 24 26 25 23 23 22 16 18 20 20 20 19 19 19 18 17 17 21 18 18 24 26 26 24 21 19 17
16 14 14 17 28 16 19 10 17 18 21 23 23 25 25 26 25 24 24 23 22 20 17 16 16 16 17 17 16 17 18 16 15 14 27 22 25 26 26 24 23 21 21
16 13 12 13 2 20 15 10 14 19 21 19 25 26 25 26 24 23 23 23 20 19 17 16 16 17 17 17 16 16 16 15 16 14 25 25 25 26 25 24 23 23 22
17 14 11 12 6 16 15 12 15 18 19 23 25 23 25 24 25 23 22 22 20 18 17 17 17 16 16 16 15 15 16 16 16 10 24 25 26 24 24 24 23 22 21
15 16 16 13 14 22 26 17 14 15 19 18 10 21 25 25 24 23 23 22 21 19 18 18 17 16 16 15 15 15 16 17 20 19 21 23 25 23 24 23 23 22 21
16 16 18 18 21 23 18 14 10 17 10 11 12 26 26 25 24 22 22 22 20 19 18 17 17 17 16 15 14 15 17 18 17 21 21 25 24 23 23 22 22 21 21
21 17 17 17 21 22 15 14 21 3 3 24 26 24 26 24 20 20 18 18 19 18 17 16 16 15 16 17 14 16 17 19 25 10 22 24 22 22 22 22 21 20 19
24 15 19 17 19 22 12 15 21 16 12 19 19 22 23 20 11 13 15 17 18 18 16 15 14 13 14 16 14 15 14 9 15 11 17 19 18 19 20 20 20 19 19
19 13 17 19 14 16 8 14 20 16 11 7 7 12 21 10 7 9 11 8 15 14 17 14 16 18 15 23 21 13 17 14 10 13 13 17 15 17 18 17 17 17 18
15 14 18 8 8 4 7 4 1 4 9 6 7 7 16 21 10 12 19 19 19 14 16 14 15 20 13 5 15 14 16 20 20 19 6 15 13 13 14 14 15 15 15
12 13 14 4 4 9 5 4 8 3 3 3 6 7 5 2 6 10 17 22 21 21 22 24 23 23 14 21 21 9 20 11 19 13 13 13 12 14 13 11 13 13 13
10 11 8 4 3 7 7 6 5 14 3 2 3 4 1 8 8 16 17 21 22 17 19 20 18 19 23 21 22 24 23 23 19 12 6 10 12 11 9 11 9 11 11
8 8 8 7 7 3 4 5 7 11 6 1 3 1 1 2 7 9 24 24 20 18 23 24 25 21 23 24 25 23 27 25 24 22 20 13 8 8 5 10 8 14 11
7 6 4 4 6 5 1 1 6 4 7 3 2 3 1 2 4 10 15 13 16 19 22 19 20 21 23 25 24 23 25 24 27 26 22 24 23 20 22 8 25 20 7
7 6 5 4 2 5 1 1 3 8 8 9 7 10 3 5 8 7 15 15 14 16 16 19 21 22 23 27 27 26 25 27 26 27 27 21 20 23 23 20 14 3 12
10 7 6 5 3 5 2 3 3 7 7 13 8 8 3 6 5 7 10 13 12 15 19 23 20 22 24 28 28 29 27 27 25 22 27 24 22 22 23 24 20 18 8
11 10 8 6 5 5 3 3 4 5 6 9 10 7 9 11 12 7 8 11 10 11 20 20 20 22 23 26 25 26 28 27 27 24 29 26 24 18 20 21 20 18 14
9 10 10 10 8 6 5 3 5 10 12 10 13 10 10 12 11 16 14 17 16 6 3 8 16 20 23 23 25 24 26 26 25 22 24 28 26 22 16 17 17 16 15
8 8 7 10 10 8 7 4 6 10 12 14 14 12 10 12 10 14 19 19 12 11 12 15 18 18 20 24 24 21 20 21 25 24 22 24 24 17 17 16 17 16 15
9 4 7 9 7 6 8 5 7 7 11 15 14 11 11 16 18 17 17 17 17 15 15 15 15 16 18 21 21 19 25 23 23 23 28 26 20 17 19 19 14 15 14
8 4 9 10 7 9 9 11 8 8 9 11 11 13 15 16 16 17 17 17 16 18 17 19 20 20 21 20 19 20 18 20 19 22 25 20 16 11 13 17 18 15 13
Wind_Direction
88 86 88 89 93 29 94 109 101 166 166 158 106 135 154 164 167 158 155 138 127 128 137 142 143 147 153 151 130 119 115 115 110 89 95 104 95 97 94 62 149 65 83
90 89 77 70 90 65 82 107 132 172 186 157 104 135 149 158 159 164 162 144 131 129 135 147 151 152 150 150 141 131 115 120 123 112 97 108 106 99 82 64 210 136 106
84 70 76 68 95 94 102 121 149 154 158 163 159 156 160 164 167 164 157 160 141 128 134 134 141 150 153 153 152 149 136 131 126 132 129 105 110 98 98 101 134 121 100
93 64 70 77 107 121 131 137 140 147 161 162 164 158 158 159 151 141 145 133 131 130 134 134 140 146 149 149 146 153 149 143 118 34 149 164 115 119 108 111 112 96 102
92 116 75 81 143 157 163 167 165 154 163 162 168 155 155 153 148 138 130 131 129 135 140 137 137 138 145 147 147 153 160 161 139 60 144 137 115 119 112 107 101 99 98
87 69 74 90 160 161 186 211 202 197 183 178 162 159 154 148 145 132 131 143 141 142 167 158 148 145 147 151 152 158 165 160 160 145 168 161 122 121 117 109 99 92 83
79 74 76 85 149 200 192 226 198 195 182 173 169 158 153 141 139 144 142 145 145 157 169 170 171 168 162 163 166 165 166 167 181 137 123 142 111 120 119 109 108 102 102
76 65 73 76 318 191 209 228 211 192 184 189 164 156 157 150 150 156 149 140 159 165 177 182 179 171 165 167 175 181 180 174 169 164 140 128 115 121 115 113 112 114 116
83 66 68 76 49 212 214 225 212 202 198 183 171 175 163 156 144 158 154 155 167 173 177 183 179 175 174 170 172 181 186 182 185 230 146 123 122 114 112 119 121 119 118
80 81 90 84 89 138 140 178 216 215 201 204 235 190 160 143 140 137 139 145 159 175 182 183 185 186 184 191 191 195 196 203 183 158 164 146 130 112 118 122 127 129 129
95 91 98 100 117 124 103 89 244 215 244 240 233 146 148 145 138 123 145 121 147 174 179 181 185 192 191 185 205 224 218 198 192 106 163 132 121 112 119 120 124 127 135
126 104 105 105 120 125 100 94 123 83 340 183 148 135 154 154 123 127 97 111 144 169 182 189 190 192 200 194 273 277 222 254 297 194 115 137 110 110 119 120 123 131 138
144 104 122 110 117 138 102 107 130 110 102 124 122 138 159 171 84 90 92 127 150 179 195 177 192 196 218 336 358 267 255 212 264 287 149 125 102 106 119 113 119 130 137
131 104 121 120 104 120 103 110 133 120 109 86 95 115 203 290 17 327 311 59 160 147 225 190 239 270 289 32 86 113 122 90 303 189 221 185 99 104 124 117 114 122 133
116 114 132 84 90 345 97 66 162 70 102 86 94 104 259 162 93 308 259 257 271 219 207 231 249 277 231 135 85 88 105 71 84 98 91 173 110 120 123 124 119 121 125
112 117 123 48 320 303 319 307 287 23 331 33 89 110 101 70 336 326 284 239 218 247 288 289 270 268 235 4 343 220 11 107 49 116 107 56 116 144 135 132 130 126 124
109 119 109 68 35 291 300 300 278 282 30 353 347 114 8 301 331 293 296 207 221 323 327 273 243 248 314 358 9 359 11 330 31 69 134 114 142 133 132 144 123 130 130
102 111 111 112 109 119 308 280 273 290 305 29 306 54 325 298 325 319 272 272 306 316 305 274 298 329 324 322 317 338 334 320 327 290 345 26 94 53 107 157 121 158 136
92 95 91 104 120 121 98 280 275 272 284 290 280 276 280 287 312 309 304 324 326 322 308 321 322 328 329 323 334 349 348 324 321 300 329 317 297 328 334 17 299 205 119
93 92 105 111 94 130 116 265 254 281 276 285 285 286 251 291 298 309 303 312 327 328 329 322 321 327 333 324 323 328 332 332 323 309 302 324 335 331 333 346 7 71 347
115 106 121 127 130 142 153 203 257 273 269 281 278 284 239 295 292 302 310 309 317 323 320 319 325 327 327 323 325 323 330 332 325 326 295 324 338 345 339 325 335 340 20
131 125 132 141 144 155 177 196 254 263 266 279 282 263 277 296 299 291 304 302 307 321 304 303 320 323 325 328 331 331 324 325 320 298 308 308 321 351 355 354 343 350 3
154 151 147 154 161 171 175 212 244 285 284 282 286 274 268 281 290 295 303 316 304 5 345 331 325 325 325 329 328 329 321 319 319 313 301 303 307 323 357 9 4 359 8
187 176 158 159 156 164 184 217 242 267 278 283 293 301 285 293 298 298 301 309 321 327 321 319 321 324 327 327 329 333 331 319 312 303 308 311 306 329 343 5 10 13 15
182 164 194 174 170 176 184 227 235 262 273 289 287 295 297 294 299 300 304 308 311 314 313 315 317 320 323 326 329 337 321 308 300 296 296 298 310 326 331 340 2 13 20
193 181 190 198 196 198 207 212 244 237 276 284 285 287 293 296 301 302 303 306 308 306 308 309 311 315 318 324 330 332 330 303 307 294 290 297 312 344 355 354 349 1 12